Regional Weather Roundup
Issued by NWS State College, PA

Home | Current Version | Previous Version | Text Only | Print | Product List | Glossary Off
Versions: 1 2 3 4 5 6 7 8 9 10 11 12 13 14 15 16 17 18 19 20 21 22 23 24 25 26 27 28 29 30 31 32 33 34 35 36 37 38 39 40 41 42 43 44 45 46 47 48 49 50

000
ASUS41 KCTP 220203
RWRCTP

REGIONAL WEATHER ROUNDUP
NATIONAL WEATHER SERVICE STATE COLLEGE PA
1000 PM EDT MON JUL 21 2014

Note: "fair" indicates few or no clouds below 12,000 feet with no
significant weather and/or obstructions to visibility.

* = STATION THAT DOES NOT REPORT PRECIPITATION /E.G. RAIN...SNOW...ETC/
    THUNDER OR FOG.

PAZ002>004-007>009-013>016-020>023-029>032-220300-
WESTERN PENNSYLVANIA

CITY           SKY/WX    TMP DP  RH WIND       PRES   REMARKS
ERIE           CLEAR     70  61  73 CALM      30.14R
MEADVILLE      CLEAR     71  64  78 NE3       30.17R
FRANKLIN*      CLEAR     70  63  78 N5        30.19R
NEW CASTLE       N/A     74  67  78 CALM      30.15R
BEAVER COUNTY  NOT AVBL
BUTLER*        CLEAR     72  66  83 CALM      30.16S
PITTSBURGH INT PTCLDY    79  68  69 NE3       30.14R
PITTSBURGH     CLEAR     77  66  68 CALM      30.13R
INDIANA*       MOCLDY    73  68  83 E3        30.20R
LATROBE        PTCLDY    77  72  83 CALM      30.15R
WASHINGTON CO* CLEAR     70  68  94 CALM      30.14R
$$

PAZ004>006-010>012-017>019-024>028-033>037-041-042-045-046-049>053-220300-
CENTRAL PENNSYLVANIA

CITY           SKY/WX    TMP DP  RH WIND       PRES   REMARKS
BRADFORD       MOCLDY    70  65  84 CALM      30.21R
DUBOIS         CLEAR     73  67  81 SE5       30.18R
CLEARFIELD     CLEAR     71  67  87 VRB3      30.19R
JOHNSTOWN      CLEAR     69  65  86 SE7       30.21S
ALTOONA        CLEAR     71  67  87 SW6       30.20R
STATE COLLEGE  PTCLDY    68  65  90 S3        30.19R
WILLIAMSPORT   PTCLDY    73  65  75 W3        30.15R
SELINSGROVE    CLEAR     68  66  93 CALM      30.17R FOG
FT INDIANTOWN  CLEAR     68  68 100 NE1       30.18R
CAPITAL CITY   CLEAR     73  66  78 CALM      30.17R
HARRISBURG     PTCLDY    74  68  81 CALM      30.16R
YORK           CLEAR     70  65  84 CALM      30.17R
$$

PAZ038>040-043-044-047-048-054-055-060>062-067>071-220300-
EASTERN PENNSYLVANIA

CITY           SKY/WX    TMP DP  RH WIND       PRES   REMARKS
SCRANTON       CLEAR     73  64  73 CALM      30.18R
MOUNT POCONO   PTCLDY    65  62  90 W5        30.23R
ALLENTOWN      CLEAR     74  63  68 CALM      30.17R
QUAKERTOWN*    CLEAR     70  66  88 CALM      30.19R
READING        CLEAR     74  65  73 CALM      30.16S
LANCASTER      CLEAR     72  64  76 CALM      30.18R
COATESVILLE    CLEAR     72  66  83 CALM      30.20R
POTTSTOWN      PTCLDY    74  65  73 CALM      30.19R
BLUE BELL      CLEAR     73  64  73 CALM      30.18R
DOYLESTOWN     CLEAR     72  66  81 S5        30.17R
WILLOW GROVE   NOT AVBL
NORTH PHILA    CLEAR     75  62  64 VRB5      30.19R
PHILADELPHIA   PTCLDY    75  59  57 S7        30.18R
$$



USA.gov is the U.S. government's official web portal to all federal, state and local government web resources and services.